Tracking 29059 objects as of 19-Jun-2024
HD Live streaming from Space Station
objects crossing your sky now

STARLINK-1371

Track STARLINK-1371 now!
10-day predictions
STARLINK-1371 is classified as:


NORAD ID: 45542
Int'l Code: 2020-025M
Perigee: 553.3 km
Apogee: 555.4 km
Inclination: 53.1 °
Period: 95.6 minutes
Semi major axis: 6925 km
RCS: Unknown
Launch date: April 22, 2020
Source: United States (US)
Launch site: AIR FORCE EASTERN TEST RANGE (AFETR)
Your satellite tracking list
Your tracking list is empty




NASA's NSSDC Master Catalog

Two Line Element Set (TLE):
1 45542U 20025M   24170.93900743  .00001911  00000-0  14716-3 0  9992
2 45542  53.0559  49.1878 0001532  90.5718 269.5447 15.06401962230328
Source of the keplerian elements: AFSPC